Location: Unspecified
(0.0000°N, 0.0000°E)
Time: 13:19:24
(UTC+00:00)

Hubble Space Telescope - Pass Details

Date: 19 May 2022
Orbit: 533 x 537 km, 28.5° (Epoch: 19 May)

Event Time Altitude Azimuth Distance (km) Brightness Sun altitude
Rises 18:18:55 0° 328° (NNW) 2,651 5.3 -5.3°
Reaches altitude 10° 18:21:57 10° 351° (N) 1,765 3.8 -6.0°
Maximum altitude 18:24:23 15° 28° (NNE) 1,463 2.9 -6.5°
Drops below altitude 10° 18:26:49 10° 65° (ENE) 1,769 3.0 -7.1°
Enters shadow 18:28:15 - 78° (ENE) 2,152 3.3 -7.5°
